SL-8 R/B

Satellite information

Favourite Embed

Satellite Type and Status

ROCKET BODYIN ORBIT

Key statistics

Satellite SL-8 R/B at a glance.

Uptime

14721

Days in orbit

Revolutions

≈ 14.4

Per day

Orbit

LEO

Low Earth Orbit

Inclination

74.0

Latest

Satellite identification and parameters

Extended collection of information and parameters for SL-8 R/B.

Object identification

Identified? True

Debris? False

Object name: SL-8 R/B

International designator: 1985-006B

Object number (NORAD): 15483

Object ID (CCSDS): 15483

Country: COMMONWEALTH OF INDEPENDENT STATES (CIS)

Current information (Y/N): Y

RCS size: LARGE

Orbital parameters

Period: 100.169 minutes

Inclination: 74.0438 deg

SMA: 7144.663 km

Apoapsis: 778.784 km

Periapsis: 754.272 km

RAAN: 103.7193 deg

Eccentricy: 0.0017154

Argument of periapsis: 94.6344 deg

Mean anomaly: 286.3989 deg

Mean motion: 14.37573668 rev/day

Mean motion (dot): 0.0000042 rev/day2

B* drag term: 0.00014836 1/REarth

Two-line elements (TLE)

Creation date: May 8, 2025, 3:01 a.m.

Reference frame: TEME

Reference center: EARTH

Epoch: May 7, 2025, 9:27 p.m. UTC

TLE line 0: 0 SL-8 R/B

TLE line 1: 1 15483U 85006B 25127.89380149 .00000420 00000-0 14836-3 0 9990

TLE line 2: 2 15483 74.0438 103.7193 0017154 94.6344 286.3989 14.37573668110086

Live tracking on map

Real-time ground track for satellite SL-8 R/B.

In-orbit conjunctions

A list of the most updated potential collisions computed for object SL-8 R/B.

Target Orbit TCA Probability of collision Miss distance Type
NOAA 16 DEB SSO 2024-09-28 16:39:49 0.0002180155 60.0 (m) DEBRIS
CZ-6A DEB LEO 2024-09-23 21:52:23 0.0008233399 926.0 (m) DEBRIS
NOAA 16 DEB SSO 2024-09-15 08:34:36 0.0002235929 279.0 (m) DEBRIS
COSMOS 2251 DEB LEO 2024-06-08 11:17:08 0.0001334337 156.0 (m) DEBRIS

Associated space launch

Military communications satellite

SL-8 R/B was lifted into orbit during the mission ‘Kosmos-3M | Strela-2M 36’, on board a Kosmos-3M space rocket.

The launch took place on Jan. 17, 1985, 5:46 p.m. from 132/1 (132L).

For more information about the launch, click the button.

Launch to space Kosmos-3M | Strela-2M 36
Kosmos-3M | Strela-2M 36

Agency: N/A

Status: Launch Successful

Launch date: Jan. 17, 1985, 5:46 p.m. UTC

Rocket: Kosmos-3M

Launch pad: 132/1 (132L)

Location: Plesetsk Cosmodrome, Russian Federation

...

Latest news about this satellite

There are no fresh news available about this satellite. Check back as we update our databases every day.


Newsletter sign-up

Weekly statistics, charts and insights to help you stay on top of the space industry.